Location: 22
(39.7117°N, 89.5929°W)
Time: 05:37:53
(UTC-05:00)

Vanguard 1 Rocket - Pass Details

Date: 07 February 2023
Orbit: 652 x 4223 km, 34.3° (Epoch: 26 March)

Event Time Altitude Azimuth Distance (km) Brightness Sun altitude
Rises 18:48:36 0° 280° (W) 7,002 13.4 -16.5°
Reaches altitude 10° 18:54:12 10° 268° (W) 6,459 13.0 -17.5°
Maximum altitude 19:10:04 25° 223° (SW) 6,068 12.0 -20.6°
Drops below altitude 10° 19:28:16 10° 179° (S) 7,277 11.9 -24.1°
Sets 19:35:30 0° 167° (SSE) 8,009 12.1 -25.4°
